Regional Weather Roundup
Issued by NWS San Diego, CA

Home | Current Version | Previous Version | Text Only | Print | Product List | Glossary On
Versions: 1 2 3 4 5 6 7 8 9 10 11 12 13 14 15 16 17 18 19 20 21 22 23 24 25 26 27 28 29 30 31 32 33 34 35 36 37 38 39 40 41 42 43 44 45 46 47 48 49 50
000
ASUS46 KSGX 252311
RWRSGX

SAN DIEGO HOURLY WEATHER ROUNDUP
NATIONAL WEATHER SERVICE SAN DIEGO CA
400 PM PDT TUE APR 25 2017

NOTE: "FAIR" INDICATES FEW OR NO CLOUDS BELOW 12,000 FEET WITH NO
SIGNIFICANT WEATHER AND/OR OBSTRUCTIONS TO VISIBILITY.

CAZ042-043-060-061-PZZ750-775-260000-

GREATER SAN DIEGO AREA

CITY           SKY/WX    TMP DP  RH WIND       PRES   REMARKS
SAN DIEGO AP   PTSUNNY   68  54  60 NW10      29.92S
NATIONAL CITY    N/A     68  58  70 W3        29.91S
CHULA VISTA      N/A     67  58  71 W8        29.84R
IMPERIAL BEACH PTSUNNY   66  55  67 W10       29.92S
BROWN FIELD    PTSUNNY   67  54  63 W14       29.90F
MIRAMAR MCAS   PTSUNNY   70  50  49 W12       29.89S
MONTGOMERY FLD PTSUNNY   67  50  54 W9        29.90R

$$

NORTH SAN DIEGO COUNTY

CITY           SKY/WX    TMP DP  RH WIND       PRES   REMARKS
CAMP PENDLETON PTSUNNY   69  53  56 SW10      29.88F
OCEANSIDE AP   PTSUNNY   70  54  56 W12       29.88F
OCEANSIDE HBR    N/A     64  57  78 W3        29.91F
VISTA            N/A     67  56  67 W2        29.86F
CARLSBAD       PTSUNNY   66  53  63 VRB5      29.88F
DEL MAR          N/A     68  57  66 W1        29.92S
LA JOLLA SCRIP   N/A     63  57  80 SW8       29.90R
FALLBROOK        N/A     70  56  61 SW7       29.86F
ESCONDIDO        N/A     69  53  55 W9        29.89S
SAN MARCOS       N/A     67  55  66 CALM      29.90S
POWAY            N/A     69  54  59 CALM      29.90R

$$

EAST SAN DIEGO COUNTY

CITY           SKY/WX    TMP DP  RH WIND       PRES   REMARKS
RAMONA         PTSUNNY   67  52  58 W10G22    29.89S
SANTEE LAKES     N/A     69  55  59 SW14      29.88R
LA MESA          N/A     67  53  59 W2        29.83S
JAMUL            N/A     67  55  64 CALM      29.89R
DESCANSO N       N/A     55  48  80 W5        29.84R
MT. LAGUNA OBS   N/A     49  42  78 W2        29.55S
CAMPO            N/A     62  49  62 W12       29.86S

$$

ORANGE COUNTY AND THE LOS ANGELES BASIN

CITY           SKY/WX    TMP DP  RH WIND       PRES   REMARKS
JOHN WAYNE AP  PTSUNNY   70  48  45 W8        29.87F
LAGUNA BEACH     N/A     68  54  61 CALM      29.84F
LAKE FOREST FR   N/A     71  42  35 W7        29.77F
HUNTINGTON BCH   N/A     69  55  60 NW9       29.88F
LOS ALAMITOS   PTSUNNY   76  44  32 W13       29.85F
FULLERTON      PTSUNNY   76  42  29 VRB7      29.84F
LONG BEACH     PTSUNNY   73  44  35 W13G24    29.85F
L.A. AP        MOSUNNY   67  52  58 W22       29.87F
L.A. DOWNTOWN  PTSUNNY   76  44  32 VRB7G21   29.84F

$$

THE INLAND EMPIRE

CITY           SKY/WX    TMP DP  RH WIND       PRES   REMARKS
CORONA         PTSUNNY   72  44  36 W13       29.86F
CHINO          PTSUNNY   73  45  36 SW10      29.87F
ONTARIO        CLOUDY    70  43  37 SW15      29.86F
SAN BERNARDINO CLOUDY    73  41  31 W9        29.87F HAZE
RIVERSIDE AP   MOSUNNY   72  44  36 W14G20    29.86F
MORENO VALLEY    N/A     73  52  47 W7          N/A
MARCH ARB      MOSUNNY   70  39  32 NW6       29.86F
HORSETHIEF CYN   N/A     71  38  31 CALM      29.86F
PERRIS           N/A     71  48  44 W7        29.87F
HEMET EAST       N/A     67  46  46 W1        29.90F
FRENCH VALLEY  FAIR      68  50  52 SW9       29.88F
TEMECULA         N/A     68  54  59 SW7       29.89F

$$

SAN BERNARDINO AND RIVERSIDE COUNTY MOUNTAINS

CITY           SKY/WX    TMP DP  RH WIND       PRES   REMARKS
BIG BEAR AP    MOSUNNY   54  30  40 SW6       29.98S
ANGELUS OAKS     N/A     55  43  66 CALM      29.79S
PINE COVE        N/A     52  44  73 W2        29.87F

$$

SOUTHERN DESERT INCLUDING THE COACHELLA VALLEY

CITY           SKY/WX    TMP DP  RH WIND       PRES   REMARKS
PALM SPRINGS   PTSUNNY   83  44  25 NW15      29.76F
PALM DESERT      N/A     84  46  26 N6        29.57F
THERMAL        CLOUDY    86  42  21 NW18      29.70F
BLYTHE         MOSUNNY   86  28  12 NW14      29.70F
IMPERIAL AP    CLOUDY    85  37  18 NW6       29.70F
EL CENTRO NAS  CLOUDY    85  35  16 W14       29.73S
YUMA AZ        PTSUNNY   85  39  19 W15       29.69
MEXICALI       CLOUDY    84  28  13 W8        29.71F

$$

UPPER DESERT

CITY           SKY/WX    TMP DP  RH WIND       PRES   REMARKS
VICTORVILLE AP MOSUNNY   66  30  26 W21G28    29.90F
HESPERIA         N/A     65  33  29 NW8       29.98F
PALMDALE       PTSUNNY   65  37  35 W28G39    29.94R
LANCASTER      PTSUNNY   66  36  32 W22G33    29.94S
EDWARDS AFB    PTSUNNY   70  33  25 W25       29.85F
DAGGETT        PTSUNNY   74  33  22 W15       29.84F
29 PALMS N     CLOUDY    75  30  19 W24G31    29.88F
NEEDLES        MOSUNNY   89  11   5 N16G25    29.69S

$$

REGIONAL REPORTS

CITY           SKY/WX    TMP DP  RH WIND       PRES   REMARKS
SANTA BARBARA  MOSUNNY   74  47  38 W21G31    29.88F
SANDBERG       PTSUNNY   54  37  52 N21G35    30.02S
LAS VEGAS NV   MOSUNNY   77  15   9 NE10G21   29.74F
PHOENIX AZ     MOSUNNY   87  33  14 W17G26    29.61F
TIJUANA        CLOUDY    66  50  55 W10       29.93S
ENSENADA NW      N/A     65  32  28 SW9       29.87F

$$

OFFSHORE ISLANDS

CITY           SKY/WX    TMP DP  RH WIND       PRES   REMARKS
CATALINA ARPT  PTSUNNY   60  49  66 W15       29.92F
SAN CLEMENTE I PTSUNNY   63  50  62 NW24G31   29.92F
SAN NICOLAS IS PTSUNNY   58  50  75 W39G54    29.91F

$$

MARINE AND OFFSHORE BUOY REPORTS

STATION/POSITION SKY/WX   TEMP    WIND        PRES    VSBY  SWELL
                          AIR SEA DIR/SP/G                  HT/PER/DIR
                          (F)     (DEG/KT/KT) (MB)    (MI)  (FT/S/D)
TANNER BANKS               57 57  310/ 25/ 33 1013.9S         7/310/11
S CLEMENTE BASIN           59 62  290/ 17/ 19 1013.1          7/290/ 9
SAN NICOLAS IS.               56                N/A           5/300/11
SO. S. ROSA ISLA           55 54  300/ 27/ 35 1015.3          7/290/11
W. S. BARBARA CH           54 52  320/ 19/ 21 1015.8F         7/290/ 8
M. S. BARBARA CH                  280/ 23/ 27 1013.1F
S. MONICA BASIN            60 61  310/  6/ 10 1012.1
S PEDRO CHANNEL               60                N/A           2/260/13
CMP PENDLETON NS              64                N/A           3/220/14
OCEANSIDE OFFSHR              64                N/A           3/190/18
TORREY PINES OTR              65                N/A           3/220/13
POINT LOMA SOUTH              63                N/A           3/260/11

$$





USA.gov is the U.S. government's official web portal to all federal, state and local government web resources and services.